Tracking 20623 objects as of 4-Apr-2020
HD Live streaming from Space Station
objects crossing your sky now

INTELSAT 4-F7

Track INTELSAT 4-F7 now!
INTELSAT 4-F7 is classified as:


NORAD ID: 6796
Int'l Code: 1973-058A
Perigee: 36,091.2 km
Apogee: 36,135.2 km
Inclination: 12.2 °
Period: 1,452.4 minutes
Semi major axis: 42484 km
RCS: 1.5964 m2 (large)
Launch date: August 23, 1973
Source: International Telecommunications Satellite Organization (ITSO)
Launch site: AIR FORCE EASTERN TEST RANGE (AFETR)
aabbcc
Your satellite tracking list
Your tracking list is empty




NASA's NSSDC Master Catalog

Two Line Element Set (TLE):
1  6796U 73058A   20094.86081383 -.00000042 +00000-0 +00000-0 0  9990
2  6796 012.2352 318.9620 0005180 101.0145 172.8097 00.99142847113182
Source of the keplerian elements: AFSPC